Location: Go?cza
(50.3372°N, 19.9313°E)
Time: 14:55:09
(UTC+00:00)

UNK - Pass Details

Date: 23 May 2024
Orbit: 660 x 680 km, 98.3° (Epoch: 12 June)

Event Time Altitude Azimuth Distance (km) Brightness Sun altitude
Rises 01:41:59 0° 171° (S) 3,027 6.7 -8.1°
Reaches altitude 10° 01:44:13 10° 174° (S) 2,117 5.9 -7.9°
Maximum altitude 01:48:50 68° 257° (WSW) 735 3.8 -7.4°
Drops below altitude 10° 01:53:28 10° 341° (NNW) 2,129 6.7 -6.9°
Sets 01:55:44 0° 344° (NNW) 3,047 7.5 -6.6°
